GW1031 Weather Reports


Display with metric or nautical units.
time (UTC)temp
F
wind
direction
speed
MPH
gust
MPH
rain 1hr
in
rain 24hr
in
rain mn
in
humidity
%
barometer
mb
20260903065653 54 183 0.0 0.0 0.00 0.00 0.00 95 1024.2
20260903065147 54 183 0.0 0.0 0.00 0.00 0.00 95 1024.2
20260903064646 54 183 0.0 0.0 0.00 0.00 0.00 95 1023.8
20260903064142 54 192 0.0 0.0 0.00 0.00 0.00 95 1024.1
20260903063637 54 128 0.0 0.0 0.00 0.00 0.00 95 1024.2
20260903063132 55 134 0.0 0.0 0.00 0.00 0.00 96 1024.0
20260903062628 54 186 0.0 0.0 0.00 0.00 0.00 95 1023.8
20260903062123 54 179 0.0 0.0 0.00 0.00 0.00 95 1023.8
20260903061618 54 187 0.0 0.0 0.00 0.00 0.00 94 1023.8
20260903061118 54 179 0.0 0.0 0.00 0.00 0.00 93 1023.8
20260903060613 54 165 0.0 0.0 0.07 0.00 0.00 93 1023.7
20260903060108 55 174 0.0 0.0 0.07 0.00 0.00 91 1024.0
20260903055606 54 102 1.0 2.0 0.12 0.02 0.02 91 1023.8
20260903055104 54 115 0.0 1.0 0.05 0.01 0.01 88 1024.0
20260903054559 54 172 0.0 1.0 0.00 0.00 0.00 87 1023.7
20260903054055 54 148 0.0 0.0 0.00 0.00 0.00 87 1023.6
20260903053550 55 134 0.0 0.0 0.00 0.00 0.00 88 1023.6
20260903053047 54 139 0.0 0.0 0.00 0.00 0.00 88 1023.8
20260903052542 54 178 0.0 0.0 0.00 0.00 0.00 87 1023.7
20260903052038 54 137 0.0 0.0 0.00 0.00 0.00 89 1024.0
20260903051537 54 175 0.0 0.0 0.00 0.00 0.00 88 1024.1
20260903051033 54 194 0.0 0.0 0.00 0.00 0.00 87 1024.0
20260903050532 54 179 0.0 0.0 0.00 0.00 0.00 88 1024.2
20260903050028 54 165 0.0 0.0 0.00 0.00 0.00 87 1024.0
20260903045527 55 74 0.0 0.0 0.00 0.00 0.00 86 1024.2
20260903045024 55 114 0.0 1.0 0.00 0.00 0.00 86 1024.2
20260903044519 55 150 0.0 0.0 0.00 0.00 0.00 86 1024.1
20260903044015 55 171 0.0 0.0 0.00 0.00 0.00 84 1024.2
20260903043510 55 141 0.0 0.0 0.00 0.00 0.00 85 1024.2
20260903043010 55 161 0.0 0.0 0.00 0.00 0.00 83 1024.3
20260903042504 56 167 0.0 0.0 0.00 0.00 0.00 84 1024.1
20260903042000 56 152 0.0 0.0 0.00 0.00 0.00 85 1024.0
20260903041457 57 163 0.0 0.0 0.00 0.00 0.00 84 1024.1
20260903040952 56 129 0.0 1.0 0.00 0.00 0.00 84 1024.5
20260903040450 57 116 0.0 0.0 0.00 0.00 0.00 84 1024.1
20260903035947 57 185 0.0 0.0 0.00 0.00 0.00 84 1024.3
20260903035442 57 118 0.0 0.0 0.00 0.00 0.00 84 1023.8
20260903034938 57 195 0.0 0.0 0.00 0.00 0.00 84 1024.1
20260903034432 57 171 0.0 0.0 0.00 0.00 0.00 82 1024.0
20260903033927 58 165 0.0 0.0 0.00 0.00 0.00 80 1024.1
20260903033423 58 153 0.0 0.0 0.00 0.00 0.00 79 1024.2
20260903032918 58 153 0.0 0.0 0.00 0.00 0.00 81 1024.0
20260903032413 58 143 0.0 0.0 0.00 0.00 0.00 79 1024.1
20260903031908 58 193 0.0 0.0 0.00 0.00 0.00 77 1024.0
20260903031407 59 193 0.0 0.0 0.00 0.00 0.00 78 1023.8
20260903030903 59 154 0.0 0.0 0.00 0.00 0.00 78 1023.8
20260903030359 59 164 0.0 0.0 0.00 0.00 0.00 76 1023.6
20260903025854 59 165 0.0 0.0 0.00 0.00 0.00 76 1023.7
20260903025349 60 140 0.0 0.0 0.00 0.00 0.00 76 1023.6
20260903024844 60 140 0.0 0.0 0.00 0.00 0.00 75 1023.8
20260903024338 60 192 0.0 0.0 0.00 0.00 0.00 73 1023.5
20260903023833 60 223 0.0 0.0 0.00 0.00 0.00 73 1023.6
20260903023329 61 125 0.0 0.0 0.00 0.00 0.00 73 1023.4
20260903022824 61 203 0.0 0.0 0.00 0.00 0.00 70 1023.2
20260903022323 60 202 0.0 0.0 0.00 0.00 0.00 70 1023.6
20260903021817 61 154 0.0 0.0 0.00 0.00 0.00 70 1023.5
20260903021313 61 182 0.0 0.0 0.00 0.00 0.00 70 1023.2
20260903020812 61 182 0.0 0.0 0.00 0.00 0.00 70 1023.1
20260903020307 62 182 0.0 0.0 0.00 0.00 0.00 68 1023.0
20260903015802 63 182 0.0 0.0 0.00 0.00 0.00 66 1023.0
20260903015257 63 188 0.0 0.0 0.00 0.00 0.00 65 1023.0
20260903014753 63 124 0.0 0.0 0.00 0.00 0.00 66 1023.1
20260903014252 64 148 0.0 0.0 0.00 0.00 0.00 65 1023.2
20260903013748 64 72 1.0 1.0 0.00 0.00 0.00 64 1023.2
20260903013247 64 130 0.0 0.0 0.00 0.00 0.00 64 1023.2
20260903012745 64 110 0.0 0.0 0.00 0.00 0.00 65 1023.5
20260903012245 65 197 0.0 0.0 0.00 0.00 0.00 61 1023.1
20260903011740 66 145 0.0 0.0 0.00 0.00 0.00 59 1023.0
20260903011233 67 176 0.0 0.0 0.00 0.00 0.00 59 1023.5
20260903010729 66 144 0.0 0.0 0.00 0.00 0.00 57 1023.5
20260903010229 67 358 1.0 1.0 0.00 0.00 0.00 58 1023.4
20260903005728 67 233 1.0 1.0 0.00 0.00 0.00 57 1023.4
20260903005223 67 29 2.0 2.0 0.00 0.00 0.00 57 1023.1
20260903004719 68 158 0.0 0.0 0.00 0.00 0.00 60 1023.5
20260903004214 69 217 1.0 1.0 0.00 0.00 0.00 59 1023.7
20260903003710 70 130 2.0 2.0 0.00 0.00 0.00 57 1023.4
20260903003205 70 104 2.0 3.0 0.00 0.00 0.00 52 1023.6
20260903002659 69 70 2.0 3.0 0.00 0.00 0.00 53 1023.4
20260903002154 70 146 0.0 1.0 0.00 0.00 0.00 56 1023.1
20260903001648 71 200 0.0 0.0 0.00 0.00 0.00 50 1023.2
20260903001143 71 202 1.0 1.0 0.00 0.00 0.00 46 1023.4
20260903000639 71 221 1.0 1.0 0.00 0.00 0.00 49 1022.8
20260903000138 72 118 0.0 1.0 0.00 0.00 0.00 48 1022.9
20260902235636 71 85 4.0 6.0 0.00 0.00 0.00 47 1023.0
20260902235132 70 255 0.0 1.0 0.00 0.00 0.00 54 1022.6
20260902234626 68 210 1.0 2.0 0.00 0.00 0.00 63 1022.6
20260902234125 69 156 0.0 0.0 0.00 0.00 0.00 58 1022.4
20260902233620 72 149 0.0 0.0 0.00 0.00 0.00 61 1022.5
20260902233114 73 147 0.0 1.0 0.00 0.00 0.00 47 1022.4
20260902232613 73 119 2.0 3.0 0.00 0.00 0.00 46 1021.9
20260902232108 74 143 0.0 0.0 0.00 0.00 0.00 47 1022.0
20260902231608 74 92 0.0 0.0 0.00 0.00 0.00 44 1021.9
20260902231107 75 227 2.0 3.0 0.00 0.00 0.00 44 1021.8
20260902230602 76 166 0.0 0.0 0.00 0.00 0.00 42 1021.8
20260902230101 77 126 0.0 0.0 0.00 0.00 0.00 38 1021.8
20260902225556 78 120 1.0 1.0 0.00 0.00 0.00 39 1021.7
20260902225056 79 170 0.0 0.0 0.00 0.00 0.00 40 1021.9
20260902224554 79 156 0.0 0.0 0.00 0.00 0.00 38 1021.9
20260902224050 80 224 3.0 5.0 0.00 0.00 0.00 36 1021.8
20260902223547 80 135 1.0 1.0 0.00 0.00 0.00 35 1021.9
20260902223045 78 113 1.0 1.0 0.00 0.00 0.00 38 1021.9
20260902222544 78 14 2.0 3.0 0.00 0.00 0.00 38 1022.1
20260902222044 78 177 0.0 0.0 0.00 0.00 0.00 40 1022.1
20260902221538 82 245 3.0 3.0 0.00 0.00 0.00 36 1022.0
20260902221033 85 235 1.0 2.0 0.00 0.00 0.00 31 1022.0
20260902220528 84 191 2.0 2.0 0.00 0.00 0.00 32 1022.3
20260902220023 84 164 0.0 1.0 0.00 0.00 0.00 31 1022.3
20260902215519 83 209 1.0 2.0 0.00 0.00 0.00 31 1022.4
20260902215014 83 175 0.0 0.0 0.00 0.00 0.00 32 1022.5
20260902214514 82 154 1.0 2.0 0.00 0.00 0.00 32 1022.3
20260902214013 79 274 3.0 6.0 0.00 0.00 0.00 34 1022.3
20260902213509 79 139 3.0 6.0 0.00 0.00 0.00 34 1022.4
20260902213008 79 204 0.0 0.0 0.00 0.00 0.00 34 1022.5
20260902212504 79 178 1.0 1.0 0.00 0.00 0.00 33 1022.3
20260902212000 80 216 1.0 2.0 0.00 0.00 0.00 32 1022.1
20260902211455 81 333 2.0 2.0 0.00 0.00 0.00 32 1022.1
20260902210950 80 218 2.0 3.0 0.00 0.00 0.00 31 1022.4
20260902210445 82 203 3.0 5.0 0.00 0.00 0.00 30 1022.3
20260902205943 82 38 2.0 2.0 0.00 0.00 0.00 31 1022.4
20260902205439 79 211 0.0 0.0 0.00 0.00 0.00 34 1022.1
20260902204934 81 270 3.0 3.0 0.00 0.00 0.00 32 1022.1
20260902204434 80 206 3.0 5.0 0.00 0.00 0.00 32 1022.3
20260902203929 80 210 1.0 2.0 0.00 0.00 0.00 33 1022.3
20260902203425 83 119 1.0 2.0 0.00 0.00 0.00 29 1022.5
20260902202924 82 79 1.0 1.0 0.00 0.00 0.00 31 1022.5
20260902202420 83 30 1.0 1.0 0.00 0.00 0.00 35 1022.6
20260902201916 83 115 1.0 1.0 0.00 0.00 0.00 32 1022.5
20260902201411 83 161 1.0 1.0 0.00 0.00 0.00 34 1022.6
20260902200906 82 86 1.0 2.0 0.00 0.00 0.00 33 1023.0
20260902200401 80 174 1.0 1.0 0.00 0.00 0.00 36 1023.0
20260902195856 82 87 2.0 3.0 0.00 0.00 0.00 35 1023.4
20260902195350 81 252 1.0 2.0 0.00 0.00 0.00 34 1023.1
20260902194845 80 50 1.0 1.0 0.00 0.00 0.00 37 1023.1
20260902194339 80 159 0.0 0.0 0.00 0.00 0.00 36 1023.4
20260902193835 81 230 1.0 2.0 0.00 0.00 0.00 35 1023.4
20260902193331 80 185 0.0 1.0 0.00 0.00 0.00 35 1023.4
20260902192829 80 172 0.0 0.0 0.00 0.00 0.00 40 1023.7
20260902192327 81 208 1.0 1.0 0.00 0.00 0.00 33 1023.5
20260902191822 81 196 2.0 3.0 0.00 0.00 0.00 33 1023.6
20260902191318 82 231 1.0 3.0 0.00 0.00 0.00 32 1024.0
20260902190813 81 204 3.0 6.0 0.00 0.00 0.00 33 1023.7
20260902190312 81 278 3.0 3.0 0.00 0.00 0.00 34 1023.7
20260902185809 81 172 0.0 1.0 0.00 0.00 0.00 36 1023.7
20260902185306 80 249 3.0 3.0 0.00 0.00 0.00 35 1024.0
20260902184759 80 99 2.0 2.0 0.00 0.00 0.00 37 1024.1
20260902184254 79 197 0.0 0.0 0.00 0.00 0.00 41 1024.2
20260902183750 79 256 1.0 1.0 0.00 0.00 0.00 41 1024.1
20260902183246 79 167 0.0 1.0 0.00 0.00 0.00 37 1024.3
20260902182742 79 233 3.0 7.0 0.00 0.00 0.00 34 1024.2
20260902182238 78 193 1.0 1.0 0.00 0.00 0.00 36 1024.5
20260902181735 77 65 0.0 1.0 0.00 0.00 0.00 39 1024.5
20260902181234 77 151 0.0 1.0 0.00 0.00 0.00 41 1024.8
20260902180729 77 186 1.0 1.0 0.00 0.00 0.00 38 1024.8
20260902180224 77 154 0.0 1.0 0.00 0.00 0.00 41 1024.7
20260902175719 77 172 1.0 2.0 0.00 0.00 0.00 40 1024.8
20260902175215 77 129 1.0 2.0 0.00 0.00 0.00 43 1024.7
20260902174711 76 173 0.0 0.0 0.00 0.00 0.00 43 1024.7
20260902174207 77 77 1.0 1.0 0.00 0.00 0.00 42 1024.9
20260902173702 76 147 1.0 1.0 0.00 0.00 0.00 42 1024.7
20260902173156 76 210 0.0 1.0 0.00 0.00 0.00 40 1024.6
20260902172651 76 213 1.0 1.0 0.00 0.00 0.00 40 1024.9
20260902172150 76 192 1.0 1.0 0.00 0.00 0.00 40 1024.8
20260902171645 75 188 1.0 2.0 0.00 0.00 0.00 39 1024.9
20260902171141 75 169 0.0 0.0 0.00 0.00 0.00 41 1024.7
20260902170637 74 184 0.0 1.0 0.00 0.00 0.00 43 1024.8
20260902170132 73 198 1.0 2.0 0.00 0.00 0.00 45 1024.8
20260902165627 72 241 1.0 1.0 0.00 0.00 0.00 44 1024.9
20260902165127 71 201 0.0 1.0 0.00 0.00 0.00 46 1024.8
20260902164622 70 133 0.0 0.0 0.00 0.00 0.00 51 1024.7
20260902164121 70 72 0.0 1.0 0.00 0.00 0.00 48 1024.9
20260902163616 69 199 0.0 0.0 0.00 0.00 0.00 48 1025.2
20260902163115 69 165 1.0 2.0 0.00 0.00 0.00 47 1025.3
20260902162614 69 145 0.0 0.0 0.00 0.00 0.00 49 1025.1
20260902162109 69 229 1.0 1.0 0.00 0.00 0.00 51 1025.3
20260902161604 68 183 0.0 1.0 0.00 0.00 0.00 52 1025.2
20260902161100 68 187 0.0 1.0 0.00 0.00 0.00 53 1025.4
20260902160556 67 161 0.0 0.0 0.00 0.00 0.00 53 1025.1
20260902160051 66 188 0.0 0.0 0.00 0.00 0.00 55 1025.1
20260902155544 66 146 0.0 0.0 0.00 0.00 0.00 58 1025.4
20260902155043 65 110 0.0 0.0 0.00 0.00 0.00 54 1025.6
20260902154538 65 140 0.0 0.0 0.00 0.00 0.00 57 1025.4
20260902154033 65 95 1.0 1.0 0.00 0.00 0.00 53 1025.6
20260902153531 64 197 0.0 0.0 0.00 0.00 0.00 58 1025.6
20260902153028 64 188 0.0 0.0 0.00 0.00 0.00 59 1025.7
20260902152524 64 139 1.0 1.0 0.00 0.00 0.00 62 1025.7
20260902152019 63 107 1.0 1.0 0.00 0.00 0.00 62 1025.8
20260902151515 62 176 0.0 0.0 0.00 0.00 0.00 63 1025.8
20260902151014 62 94 1.0 1.0 0.00 0.00 0.00 63 1025.7
20260902150509 62 129 0.0 0.0 0.00 0.00 0.00 67 1025.8
20260902150004 62 143 0.0 1.0 0.00 0.00 0.00 66 1025.8
20260902145459 61 141 0.0 1.0 0.00 0.00 0.00 68 1025.8
20260902144953 60 170 0.0 0.0 0.00 0.00 0.00 65 1025.9
20260902144449 60 159 0.0 0.0 0.00 0.00 0.00 70 1025.9
20260902143944 59 128 1.0 1.0 0.00 0.00 0.00 72 1025.8
20260902143440 59 93 1.0 2.0 0.00 0.00 0.00 72 1025.9
20260902142934 58 173 0.0 0.0 0.00 0.00 0.00 72 1026.0
20260902142430 57 157 0.0 0.0 0.00 0.00 0.00 72 1026.2
20260902141926 56 139 0.0 0.0 0.00 0.00 0.00 77 1025.9
20260902141421 55 114 0.0 0.0 0.00 0.00 0.00 79 1026.2
20260902140920 56 91 0.0 1.0 0.00 0.00 0.00 79 1026.0
20260902140416 57 106 0.0 0.0 0.00 0.00 0.00 75 1025.8
20260902135910 54 147 0.0 0.0 0.00 0.00 0.00 81 1026.0
20260902135406 52 127 0.0 0.0 0.00 0.00 0.00 87 1025.8
20260902134904 51 163 0.0 0.0 0.00 0.00 0.00 89 1026.3
20260902134400 50 134 0.0 0.0 0.00 0.00 0.00 91 1026.0
20260902133855 49 136 0.0 0.0 0.00 0.00 0.00 91 1026.3
20260902133355 48 163 0.0 0.0 0.00 0.00 0.00 92 1025.9
20260902132850 48 167 0.0 0.0 0.00 0.00 0.00 93 1025.9
20260902132345 48 156 0.0 0.0 0.00 0.00 0.00 94 1025.9
20260902131841 48 155 0.0 0.0 0.00 0.00 0.00 94 1025.8
20260902131338 48 127 0.0 0.0 0.00 0.00 0.00 94 1025.7
20260902130836 48 166 0.0 0.0 0.00 0.00 0.00 94 1025.7
20260902130333 48 159 0.0 0.0 0.00 0.00 0.00 94 1025.8
20260902125827 48 159 0.0 0.0 0.00 0.00 0.00 93 1025.9
20260902125323 48 160 0.0 0.0 0.00 0.00 0.00 93 1025.7
20260902124819 48 170 0.0 0.0 0.00 0.00 0.00 94 1025.9
20260902124315 48 156 0.0 0.0 0.00 0.00 0.00 93 1025.4
20260902123810 48 143 0.0 0.0 0.00 0.00 0.00 93 1025.8
20260902123306 48 150 0.0 0.0 0.00 0.00 0.00 92 1025.8
20260902122805 48 157 0.0 0.0 0.00 0.00 0.00 91 1025.6
20260902122305 49 158 0.0 0.0 0.00 0.00 0.00 91 1025.8
20260902121800 48 173 0.0 0.0 0.00 0.00 0.00 91 1025.6
20260902121255 49 173 0.0 0.0 0.00 0.00 0.00 90 1025.6
20260902120751 49 165 0.0 0.0 0.00 0.00 0.00 89 1025.6
20260902120247 50 147 0.0 0.0 0.00 0.00 0.00 90 1025.6
20260902115742 49 170 0.0 0.0 0.00 0.00 0.00 90 1025.3
20260902115238 50 150 0.0 0.0 0.00 0.00 0.00 90 1025.4
20260902114734 50 148 0.0 0.0 0.00 0.00 0.00 90 1024.9
20260902114230 49 126 0.0 0.0 0.00 0.00 0.00 89 1025.8
20260902113730 49 171 0.0 0.0 0.00 0.00 0.00 90 1025.7
20260902113225 49 166 0.0 0.0 0.00 0.00 0.00 90 1025.4
20260902112724 49 166 0.0 0.0 0.00 0.00 0.00 89 1025.6
20260902112222 49 166 0.0 0.0 0.00 0.00 0.00 88 1025.3
20260902111717 50 152 0.0 0.0 0.00 0.00 0.00 89 1025.2
20260902111213 50 133 0.0 0.0 0.00 0.00 0.00 89 1025.3
20260902110709 50 159 0.0 0.0 0.00 0.00 0.00 88 1025.2
20260902110204 50 155 0.0 0.0 0.00 0.00 0.00 88 1025.3
20260902105704 51 155 0.0 0.0 0.00 0.00 0.00 87 1025.3
20260902105159 51 143 0.0 0.0 0.00 0.00 0.00 86 1025.3
20260902104654 51 168 0.0 0.0 0.00 0.00 0.00 82 1024.9
20260902104150 50 166 0.0 0.0 0.00 0.00 0.00 84 1025.3
20260902103649 50 159 0.0 0.0 0.00 0.00 0.00 86 1025.2
20260902103144 50 157 0.0 0.0 0.00 0.00 0.00 87 1025.3
20260902102641 51 128 0.0 0.0 0.00 0.00 0.00 88 1025.3
20260902102138 51 148 0.0 0.0 0.00 0.00 0.00 87 1025.4
20260902101633 51 91 0.0 1.0 0.00 0.00 0.00 82 1025.4
20260902101132 51 181 0.0 0.0 0.00 0.00 0.00 87 1025.4
20260902100627 51 170 0.0 0.0 0.00 0.00 0.00 86 1025.4
20260902100122 51 170 0.0 0.0 0.00 0.00 0.00 86 1025.4
20260902095621 51 167 0.0 0.0 0.00 0.00 0.00 86 1025.4
20260902095120 51 157 0.0 0.0 0.00 0.00 0.00 86 1025.3
20260902094616 52 144 0.0 0.0 0.00 0.00 0.00 86 1025.2
20260902094113 52 115 0.0 1.0 0.00 0.00 0.00 87 1025.4
20260902093612 51 151 0.0 0.0 0.00 0.00 0.00 86 1025.2
20260902093107 51 183 0.0 0.0 0.00 0.00 0.00 87 1025.3
20260902092607 51 163 0.0 0.0 0.00 0.00 0.00 87 1025.3
20260902092102 51 193 0.0 0.0 0.00 0.00 0.00 87 1025.3
20260902091557 51 154 0.0 0.0 0.00 0.00 0.00 88 1024.9
20260902091053 52 148 0.0 0.0 0.00 0.00 0.00 87 1025.1
20260902090549 52 142 0.0 0.0 0.00 0.00 0.00 88 1025.3
20260902090048 52 164 0.0 0.0 0.00 0.00 0.00 87 1025.1
20260902085542 52 149 0.0 0.0 0.00 0.00 0.00 88 1025.3
20260902085037 52 151 0.0 0.0 0.00 0.00 0.00 88 1025.2
20260902084534 52 172 0.0 0.0 0.00 0.00 0.00 86 1025.6
20260902084029 52 173 0.0 0.0 0.00 0.00 0.00 84 1025.6
20260902083519 52 173 0.0 0.0 0.00 0.00 0.00 83 1025.4
20260902083013 52 153 0.0 0.0 0.00 0.00 0.00 85 1025.4
20260902082509 52 165 0.0 0.0 0.00 0.00 0.00 84 1025.6
20260902082005 53 164 0.0 0.0 0.00 0.00 0.00 84 1025.3
20260902081501 53 137 0.0 0.0 0.00 0.00 0.00 85 1025.2
20260902080955 53 135 0.0 0.0 0.00 0.00 0.00 84 1025.4
20260902080451 52 172 0.0 0.0 0.00 0.00 0.00 81 1025.4
20260902075951 52 168 0.0 0.0 0.00 0.00 0.00 84 1025.6
20260902075447 52 150 0.0 0.0 0.00 0.00 0.00 85 1025.7
20260902074942 52 147 0.0 0.0 0.00 0.00 0.00 84 1025.7
20260902074438 53 147 0.0 0.0 0.00 0.00 0.00 83 1025.8
20260902073932 53 118 1.0 1.0 0.00 0.00 0.00 83 1025.7
20260902073429 52 147 0.0 0.0 0.00 0.00 0.00 81 1025.7
20260902072925 52 144 0.0 0.0 0.00 0.00 0.00 82 1025.7
20260902072420 52 136 0.0 0.0 0.00 0.00 0.00 82 1025.7
20260902071917 52 143 0.0 0.0 0.00 0.00 0.00 84 1025.6
20260902071416 52 181 0.0 0.0 0.00 0.00 0.00 86 1025.6
20260902070913 52 161 0.0 0.0 0.00 0.00 0.00 85 1025.4
20260902070408 51 151 0.0 0.0 0.00 0.00 0.00 86 1025.4